Hourly Data Report for September 18, 2017

All times are specified in Local Standard Time (LST). Add 1 hour to adjust for Daylight Saving Time where and when it is observed.

POINT LEPREAU CS
NEW BRUNSWICK

45°04'23.040" N
66°26'57.090" W
6.00 m
8104201
71699
WPE

Download Data

Hourly Data (September 2017)
Hourly Data Report for September 18, 2017
Temp Definition
°C
Dew Point Temp Definition
°C
Rel Hum Definition
%
Wind Dir Definition
10's deg

Wind Spd Definition
km/h
Visibility Definition
km
Stn Press Definition
kPa
Hmdx Definition


Wind Chill Definition


Weather Definition


TIME
00:00 13.4 LegendMM 100 12 2   102.14     LegendNANA
01:00 13.4 LegendMM 100 10 6   102.15     LegendNANA
02:00 13.4 LegendMM 100 16 2   102.18     LegendNANA
03:00 13.4 LegendMM 100 13 3   102.16     LegendNANA
04:00 13.4 LegendMM 100 17 8   102.15     LegendNANA
05:00 13.3 LegendMM 100 17 8   102.17     LegendNANA
06:00 13.2 LegendMM 100 18 7   102.23     LegendNANA
07:00 13.2 LegendMM 100 19 4   102.26     LegendNANA
08:00 13.4 LegendMM 100 14 4   102.29     LegendNANA
09:00 13.4 LegendMM 100 15 5   102.33     LegendNANA
10:00 14.0 LegendMM 100 18 8   102.36     LegendNANA
11:00 14.0 LegendMM 100 12 3   102.37     LegendNANA
12:00 14.4 LegendMM 100 12 6   102.34     LegendNANA
13:00 14.8 LegendMM 100 11 8   102.32     LegendNANA
14:00 15.2 LegendMM 100 11 9   102.30     LegendNANA
15:00 15.2 14.9 98 10 8   102.31     LegendNANA
16:00 14.7 14.5 99 11 7   102.31     LegendNANA
17:00 14.3 LegendMM 100 10 4   102.32     LegendNANA
18:00 14.5 LegendMM 100 9 4   102.33     LegendNANA
19:00 14.6 LegendMM 100 7 2   102.31     LegendNANA
20:00 14.7 LegendMM 100 3 4   102.33     LegendNANA
21:00 15.1 LegendMM 100 2 1   102.35     LegendNANA
22:00 14.3 LegendMM 100 0 1   102.36     LegendNANA
23:00 14.7 LegendMM 100 2 3   102.35     LegendNANA

Notes on Data Quality.

Legend

  • E = Estimated
  • M = Missing
  • NA = Not Available
  • ‡ = Partner data that is not subject to review by the National Climate Archives
Date modified: